EZY16YV EGAC-EGCC

Flight info

Callsign EZY16YV
Flight time N/A
Altitude 25000
Route DUFFY L15 PEPOD Q38 MAKUX
Aircraft A320/M-SDE3FGHIRWY/LB1

Departure

Time 2026-04-24 21:33
Airport George Best Belfast City Airport (EGAC)

Arrival

Time N/A
Airport Manchester Airport (EGCC)
Time Latitude Longitude Altitude Speed Heading
2026-04-24 21:07 54.61502 -5.87145 26 ft 0 kts 155°
2026-04-24 21:27 54.61503 -5.87146 23 ft 2 kts 155°
2026-04-24 21:27 54.61526 -5.87163 23 ft 4 kts 160°
2026-04-24 21:27 54.61552 -5.87174 23 ft 4 kts 179°
2026-04-24 21:28 54.61578 -5.87167 25 ft 4 kts 210°
2026-04-24 21:28 54.61586 -5.87157 25 ft 1 kts 214°
2026-04-24 21:28 54.61587 -5.87157 25 ft 0 kts 214°
2026-04-24 21:30 54.61544 -5.87208 25 ft 14 kts 214°
2026-04-24 21:30 54.61460 -5.87308 23 ft 10 kts 214°
2026-04-24 21:30 54.61412 -5.87378 23 ft 9 kts 230°
2026-04-24 21:30 54.61373 -5.87454 23 ft 10 kts 219°
2026-04-24 21:31 54.61280 -5.87567 23 ft 19 kts 214°
2026-04-24 21:31 54.61168 -5.87702 23 ft 17 kts 215°
2026-04-24 21:31 54.61095 -5.87795 23 ft 11 kts 223°
2026-04-24 21:31 54.61087 -5.87899 25 ft 9 kts 289°
2026-04-24 21:32 54.61107 -5.87958 22 ft 3 kts 302°
2026-04-24 21:32 54.61118 -5.87989 22 ft 3 kts 302°
2026-04-24 21:32 54.61127 -5.88013 22 ft 2 kts 302°
2026-04-24 21:32 54.61135 -5.88030 22 ft 2 kts 313°
2026-04-24 21:33 54.61192 -5.87990 23 ft 26 kts 37°
2026-04-24 21:33 54.61404 -5.87735 21 ft 83 kts 35°
2026-04-24 21:33 54.62364 -5.86588 163 ft 153 kts 34°
2026-04-24 21:33 54.63232 -5.85534 931 ft 152 kts 36°
2026-04-24 21:34 54.64119 -5.84456 1572 ft 164 kts 37°
2026-04-24 21:34 54.65107 -5.83259 2060 ft 182 kts 37°
2026-04-24 21:34 54.66192 -5.81932 2498 ft 200 kts 37°
2026-04-24 21:34 54.67402 -5.80441 2811 ft 229 kts 37°
2026-04-24 21:35 54.68789 -5.78742 3089 ft 260 kts 36°
2026-04-24 21:35 54.70274 -5.76948 3186 ft 258 kts 36°
2026-04-24 21:35 54.71767 -5.75151 3696 ft 264 kts 36°
2026-04-24 21:35 54.73280 -5.73329 4198 ft 266 kts 36°
2026-04-24 21:36 54.74801 -5.71496 4703 ft 267 kts 36°
2026-04-24 21:36 54.76341 -5.69653 4960 ft 270 kts 35°
2026-04-24 21:36 54.77993 -5.68128 5007 ft 270 kts 17°
2026-04-24 21:36 54.79743 -5.67953 4999 ft 239 kts 347°
2026-04-24 21:37 54.81136 -5.69208 5004 ft 225 kts 315°
2026-04-24 21:37 54.81907 -5.71509 5005 ft 222 kts 281°
2026-04-24 21:37 54.81832 -5.74129 5007 ft 219 kts 247°
2026-04-24 21:37 54.81065 -5.76391 5004 ft 218 kts 231°
2026-04-24 21:38 54.80143 -5.78474 5004 ft 218 kts 230°
2026-04-24 21:38 54.79200 -5.80536 5004 ft 218 kts 229°
2026-04-24 21:38 54.78255 -5.82592 5004 ft 218 kts 229°
2026-04-24 21:38 54.77321 -5.84619 5005 ft 218 kts 229°
2026-04-24 21:39 54.76375 -5.86671 5005 ft 218 kts 229°
2026-04-24 21:39 54.75427 -5.88722 5005 ft 218 kts 229°
2026-04-24 21:39 54.74401 -5.90645 4881 ft 221 kts 213°
2026-04-24 21:39 54.72929 -5.91581 4366 ft 232 kts 181°
2026-04-24 21:40 54.71366 -5.90977 3866 ft 234 kts 149°
2026-04-24 21:40 54.70245 -5.89028 3350 ft 230 kts 117°
2026-04-24 21:40 54.69925 -5.86385 2841 ft 223 kts 84°
2026-04-24 21:40 54.70460 -5.83969 2331 ft 213 kts 59°
2026-04-24 21:41 54.71023 -5.81693 2072 ft 204 kts 87°
2026-04-24 21:41 54.70718 -5.79400 1918 ft 190 kts 121°
2026-04-24 21:41 54.69953 -5.77589 1760 ft 184 kts 138°
2026-04-24 21:41 54.68801 -5.76954 1622 ft 180 kts 190°
2026-04-24 21:42 54.67809 -5.78184 1459 ft 183 kts 240°
2026-04-24 21:42 54.67339 -5.80231 1227 ft 180 kts 242°
2026-04-24 21:42 54.66480 -5.81583 1020 ft 162 kts 208°
2026-04-24 21:42 54.65588 -5.82655 802 ft 151 kts 217°
2026-04-24 21:43 54.64772 -5.83738 583 ft 145 kts 214°
2026-04-24 21:43 54.63947 -5.84701 398 ft 140 kts 216°
2026-04-24 21:43 54.63147 -5.85662 208 ft 139 kts 214°
2026-04-24 21:43 54.62353 -5.86605 41 ft 138 kts 214°
2026-04-24 21:44 54.61675 -5.87409 24 ft 82 kts 214°
2026-04-24 21:44 54.61452 -5.87678 20 ft 0 kts 215°